sat.trackr.live / text

‹ back to catalog

STARLINK-30577

NORAD 58053 · 2023-158C

PAYLOAD ACTIVE UNKNOWN

§ Identity

Operator
Country
US
Launch date
2023-10-13
Launch site
AFETR
Launch vehicle
Mass (kg)
RCS (m²)

Purposes: comms

External: N2YO · Heavens-Above · Gunter

§ Orbital elements

Epoch: 2026-09-20T07:10:17.566752Z

Period
94.27 min
Inclination
43.0047°
Eccentricity
0.0001946
Mean motion
15.27578211 rev/d
Perigee alt
481.7 km
Apogee alt
484.4 km
Semi-major
6,861.2 km
B*
1.5009e-5
RAAN
7.9225°
Arg perigee
281.1709°
Mean anomaly
78.8924°
Rev number
16,333

§ Raw data

STARLINK-305771 58053U 23158C   26263.29881443  .00000151  00000+0  15009-4 0  99932 58053  43.0047   7.9225 0001946 281.1709  78.8924 15.27578211163337

JSON: /api/v1/satellites/58053 · /tle

For live sub-satellite position, see the globe view (requires WebGL).

§ Visibility from observer

Set your observer location to see the next 7 days of passes ≥ 10°. The values pass through the URL so the page stays shareable.

No JS? Fill the form by hand. The geolocation button needs JavaScript.